Regional Weather Roundup
Issued by NWS

Home | Current Version | Previous Version | Graphics & Text | Print | Product List | Glossary On
Versions: 1 2 3 4 5 6 7 8 9 10 11 12 13 14 15 16 17 18 19 20 21 22 23 24 25 26 27 28 29 30 31 32 33 34 35 36 37 38 39 40 41 42 43 44 45 46 47 48 49 50
860
ASUS43 KLSX 211307
RWRMO

WEATHER SUMMARY FOR MISSOURI
NATIONAL WEATHER SERVICE SPRINGFIELD MO
800 AM CDT SAT APR 21 2018

NOTE: "FAIR" INDICATES FEW OR NO CLOUDS BELOW 12,000 FEET WITH NO
       SIGNIFICANT WEATHER AND/OR OBSTRUCTIONS TO VISIBILITY.
       CURRENT SKY AND/OR WEATHER CONDITIONS ARE NOT AVAILABLE FOR
       CHILLICOTHE AND FARMINGTON.

MOZ001>031-035>038-043-044-053-054-211400-
...NORTHERN AND WESTERN MISSOURI...

CITY           SKY/WX    TMP DP  RH WIND       PRES   REMARKS
KANSAS CTY INT CLOUDY    49  26  41 E10       30.25S
KANSAS C DTWN  CLOUDY    51  27  39 E8        30.25R
LEE`S SUMMIT   CLOUDY    49  28  44 E12       30.25S
ST JOSEPH      CLOUDY    50  27  40 E12       30.27S
CHILLICOTHE      N/A     50  27  40 E5        30.32F
KIRKSVILLE     CLOUDY    47  30  51 NE3       30.36R

$$
MOZ066>068-077>081-088>096-101>105-211400-
...SOUTHWEST MISSOURI...

CITY           SKY/WX    TMP DP  RH WIND       PRES   REMARKS
SPRINGFIELD    PTSUNNY   53  29  39 E14G24    30.17F
JOPLIN         CLOUDY    51  37  58 E6        30.18R
BRANSON        PTSUNNY   48  30  49 E15       30.19F

$$
MOZ032>034-039>042-045>050-055>058-069>072-211400-
...CENTRAL MISSOURI...

CITY           SKY/WX    TMP DP  RH WIND       PRES   REMARKS
COLUMBIA       CLOUDY    47  27  45 E10       30.31R
JEFFERSON CITY CLOUDY    48  29  47 SE6       30.31R
ROLLA          CLOUDY    45  26  47 E8        30.30R
SEDALIA        CLOUDY    49  31  49 E8        30.28S
WHITEMAN AFB   PTSUNNY   48  29  49 E7        30.22S
WARRENSBURG    CLOUDY    46  30  53 NE6       30.26S
OSAGE BEACH    CLOUDY    49  28  44 E6        30.29R

$$
MOZ051-052-059>065-211400-
...EAST CENTRAL MISSOURI...

CITY           SKY/WX    TMP DP  RH WIND       PRES   REMARKS
ST LOUIS INTL  CLOUDY    50  30  46 E12       30.35R
SPIRIT OF STL  CLOUDY    50  32  50 NE3       30.34R
ST CHARLES     CLOUDY    51  31  46 E14       30.35R

$$
MOZ072>076-082>087-097>100-106>115-211400-
...SOUTH CENTRAL AND SOUTHEAST MISSOURI...

CITY           SKY/WX    TMP DP  RH WIND       PRES   REMARKS
CAPE GIRARDEAU FAIR      52  34  50 E9        30.31F
FARMINGTON     CLOUDY    48  34  58 E6        30.31S
POPLAR BLUFF   FAIR      50  35  56 NE7       30.29R
WEST PLAINS    CLOUDY    49  28  44 E8        30.26S

$$




USA.gov is the U.S. government's official web portal to all federal, state and local government web resources and services.